Location: La Bru�re
(48.1026°N, 1.2868°W)
Time: 23:00:49
(UTC+00:00)

Daily predictions for brighter satellites

Satellite Brightness Start Highest point End
(mag) Time Altitude Azimuth Time Altitude Azimuth Time Altitude Azimuth
STARLINK-1187 3.2 20:36:27 10° WNW 20:39:48 72° NNE 20:43:08 10° ESE
Cosmos 1766 3.9 20:38:11 10° N 20:42:01 42° ENE 20:45:49 10° SSE
STARLINK-1234 3.3 20:40:05 10° WNW 20:43:42 83° NNE 20:47:16 10° ESE
Aureole 2 Rocket 3.9 20:41:52 10° SW 20:44:39 35° WNW 20:47:20 10° N
STARLINK-1228 3.3 20:45:20 10° WNW 20:49:01 88° NNE 20:52:42 10° ESE
Nadezhda 4 Rocket 4.0 20:44:00 10° S 20:50:04 70° E 20:56:10 10° NNE
STARLINK-1205 4.5 20:48:03 10° WNW 20:52:06 48° NNE 20:56:08 10° E
Resurs 01 Rocket 2.2 20:49:57 10° S 20:54:20 58° W 20:58:45 10° NNW
USA 245 2.4 20:52:43 10° SSE 20:55:12 50° ENE 20:57:28 10° N
STARLINK-1218 4.4 20:53:03 10° WNW 20:57:06 50° NNE 21:01:09 10° E
STARLINK-52 3.4 20:54:48 10° SSW 20:57:48 38° SE 21:00:50 10° ENE
STARLINK-1254 4.4 20:58:03 10° WNW 21:02:06 52° NNE 21:06:10 10° E
CENTAUR R/B 3.3 20:54:34 10° NW 21:02:33 79° NE 21:11:10 11° SE
SPOT 5 3.8 20:57:59 10° SE 21:02:59 43° ENE 21:08:01 10° N
Spot 2 Rocket 3.5 20:58:13 10° SSE 21:03:16 85° ENE 21:08:21 10° NNW
Cosmos 1378 3.1 20:59:39 10° S 21:03:21 77° E 21:07:04 10° NNE
BREEZE-M DEB 2.8 21:02:10 10° SW 21:04:23 40° SE 21:08:59 10° ENE
Cosmos 1066 Rocket 4.3 20:59:38 10° SSW 21:04:59 77° WNW 21:10:22 10° N
Meteor 1-23 Rocket 4.5 21:00:58 10° SSW 21:06:37 74° WNW 21:12:15 10° N
Terra 2.9 21:02:43 10° SE 21:06:55 32° ENE 21:11:08 10° N
STARLINK-1231 4.3 21:03:02 10° WNW 21:07:06 53° NNE 21:11:11 10° E
Cosmos 1378 Rocket 4.2 21:05:21 10° SSW 21:09:41 59° WNW 21:14:00 10° N
ATLAS 3B R/B 3.4 21:04:23 10° NW 21:10:56 49° NE 21:17:41 10° ESE
STARLINK-1232 4.2 21:08:02 10° WNW 21:12:08 55° NNE 21:16:13 10° E
Cosmos 1726 4.4 21:10:30 10° NE 21:12:13 13° ENE 21:13:56 10° E
SAR-Lupe-2 3.6 21:10:16 10° NNE 21:13:51 65° ESE 21:17:26 10° S
Cosmos 1805 3.4 21:10:14 10° NNW 21:14:10 73° W 21:18:03 10° S
NOSS 2-2 (D) 4.5 21:12:05 10° WSW 21:15:34 46° NW 21:19:36 10° NNE
STARLINK-1208 4.2 21:13:01 10° WNW 21:17:07 58° NNE 21:21:13 10° E
STARLINK-1444 1.8 21:15:43 10° WSW 21:17:49 85° NNW 21:19:57 10° ENE
STARLINK-1452 1.8 21:16:22 10° WSW 21:18:27 84° NNW 21:20:34 10° ENE
APEX 4.3 21:12:44 10° SSW 21:18:55 59° ESE 21:23:58 10° NE
STARLINK-1392 1.8 21:17:18 10° WSW 21:19:20 82° NNW 21:21:23 10° ENE
STARLINK-1399 1.8 21:17:19 10° WSW 21:19:22 82° NNW 21:21:26 10° ENE
STARLINK-1393 1.8 21:17:22 10° WSW 21:19:23 82° NNW 21:21:27 10° ENE
STARLINK-1394 1.8 21:17:23 10° WSW 21:19:25 82° NNW 21:21:28 10° ENE
STARLINK-1397 1.8 21:17:25 10° WSW 21:19:27 82° NNW 21:21:32 10° ENE
STARLINK-1395 1.7 21:17:27 10° WSW 21:19:27 82° NNW 21:21:30 10° ENE
STARLINK-1396 1.8 21:17:26 10° WSW 21:19:28 81° NNW 21:21:32 10° ENE
STARLINK-1414 1.8 21:17:27 10° WSW 21:19:28 81° NNW 21:21:32 10° ENE
STARLINK-1408 1.8 21:17:30 10° WSW 21:19:31 81° NNW 21:21:35 10° ENE
STARLINK-1404 1.8 21:17:30 10° WSW 21:19:32 81° NNW 21:21:37 10° ENE
STARLINK-1416 1.8 21:17:31 10° WSW 21:19:33 81° NNW 21:21:37 10° ENE
STARLINK-1415 1.8 21:17:31 10° WSW 21:19:33 81° NNW 21:21:39 10° ENE
STARLINK-1450 1.8 21:17:32 10° WSW 21:19:34 81° NNW 21:21:40 10° ENE
STARLINK-1406 1.8 21:17:36 10° WSW 21:19:37 81° NNW 21:21:40 10° ENE
STARLINK-1401 1.8 21:17:34 10° WSW 21:19:37 81° NNW 21:21:42 10° ENE
STARLINK-1417 1.8 21:17:37 10° WSW 21:19:40 81° NNW 21:21:45 10° ENE
STARLINK-1402 1.8 21:17:39 10° WSW 21:19:41 81° NNW 21:21:46 10° ENE
STARLINK-1413 1.8 21:17:39 10° WSW 21:19:41 81° NNW 21:21:47 10° ENE
STARLINK-1419 1.8 21:17:39 10° WSW 21:19:42 81° NNW 21:21:46 10° ENE
STARLINK-1422 1.8 21:17:44 10° WSW 21:19:47 81° NNW 21:21:51 10° ENE
STARLINK-1453 1.8 21:17:44 10° WSW 21:19:47 81° NNW 21:21:54 10° ENE
STARLINK-1398 1.8 21:17:45 10° WSW 21:19:49 81° NNW 21:21:55 10° ENE
STARLINK-1420 1.8 21:17:48 10° WSW 21:19:51 81° NNW 21:21:55 10° ENE
STARLINK-1440 1.8 21:17:48 10° WSW 21:19:51 81° NNW 21:21:56 10° ENE
STARLINK-1436 (VISORSAT) 1.8 21:17:47 10° WSW 21:19:52 81° NNW 21:21:58 10° ENE
STARLINK-1460 1.8 21:17:50 10° WSW 21:19:53 81° NNW 21:21:59 10° ENE
STARLINK-1410 1.8 21:17:55 10° WSW 21:19:58 81° NNW 21:22:03 10° ENE
STARLINK-1423 1.8 21:17:57 10° WSW 21:19:58 80° NNW 21:22:03 10° ENE
STARLINK-1400 1.8 21:17:55 10° WSW 21:19:58 81° NNW 21:22:04 10° ENE
STARLINK-1421 1.8 21:17:56 10° WSW 21:19:58 80° NNW 21:22:03 10° ENE
STARLINK-1454 1.8 21:17:56 10° WSW 21:19:58 80° NNW 21:22:04 10° ENE
STARLINK-1458 1.8 21:17:58 10° WSW 21:20:01 80° NNW 21:22:06 10° ENE
STARLINK-1445 1.8 21:18:00 10° WSW 21:20:03 80° NNW 21:22:09 10° ENE
STARLINK-1446 1.8 21:18:02 10° WSW 21:20:06 80° NNW 21:22:11 10° ENE
STARLINK-1407 1.8 21:18:02 10° WSW 21:20:06 80° NNW 21:22:11 10° ENE
STARLINK-1405 1.8 21:18:07 10° WSW 21:20:07 80° NNW 21:22:09 10° ENE
STARLINK-1370 1.8 21:18:05 10° WSW 21:20:08 80° NNW 21:22:13 10° ENE
STARLINK-1456 1.8 21:18:06 10° WSW 21:20:09 80° NNW 21:22:13 10° ENE
STARLINK-1457 1.8 21:18:06 10° WSW 21:20:09 80° NNW 21:22:13 10° ENE
STARLINK-1451 1.8 21:18:06 10° WSW 21:20:09 80° NNW 21:22:14 10° ENE
STARLINK-1409 1.8 21:18:07 10° WSW 21:20:10 80° NNW 21:22:15 10° ENE
STARLINK-1439 1.8 21:18:11 10° WSW 21:20:10 80° NNW 21:22:13 10° ENE
STARLINK-1437 1.8 21:18:07 10° WSW 21:20:10 80° NNW 21:22:15 10° ENE
STARLINK-1447 1.8 21:18:07 10° WSW 21:20:10 80° NNW 21:22:16 10° ENE
STARLINK-1455 1.8 21:18:07 10° WSW 21:20:10 80° NNW 21:22:16 10° ENE
STARLINK-1441 1.8 21:18:09 10° WSW 21:20:13 80° NNW 21:22:18 10° ENE
STARLINK-1443 1.8 21:18:11 10° WSW 21:20:16 80° NNW 21:22:21 10° ENE
STARLINK-1351 1.8 21:18:13 10° WSW 21:20:18 80° NNW 21:22:22 10° ENE
STARLINK-1418 1.8 21:18:14 10° WSW 21:20:18 80° NNW 21:22:22 10° ENE
STARLINK-1434 1.8 21:18:14 10° WSW 21:20:18 80° NNW 21:22:24 10° ENE
STARLINK-1403 1.8 21:18:14 10° WSW 21:20:18 80° NNW 21:22:23 10° ENE
STARLINK-1442 1.8 21:18:14 10° WSW 21:20:18 80° NNW 21:22:23 10° ENE
STARLINK-1448 1.8 21:18:16 10° WSW 21:20:19 80° NNW 21:22:25 10° ENE
STARLINK-1433 1.8 21:18:17 10° WSW 21:20:21 80° NNW 21:22:26 10° ENE
STARLINK-1449 1.8 21:18:19 10° WSW 21:20:22 80° NNW 21:22:28 10° ENE
Cosmos 1470 3.6 21:16:48 10° N 21:20:23 34° ENE 21:23:07 15° SE
STARLINK-1438 1.8 21:18:23 10° WSW 21:20:26 80° NNW 21:22:30 10° ENE
STARLINK-1411 1.8 21:18:29 10° WSW 21:20:32 79° NNW 21:22:36 10° ENE
STARLINK-1412 1.8 21:18:29 10° WSW 21:20:32 79° NNW 21:22:37 10° ENE
OE (NEXTSAT) 4.4 21:17:31 10° WSW 21:20:57 56° S 21:24:24 10° E
BREEZE-M DEB (TANK) 4.2 21:00:49 10° WSW 21:21:10 75° SSE 21:25:48 10° ENE
STARLINK-1271 4.1 21:18:00 10° WNW 21:22:06 60° NNE 21:26:13 10° E
BREEZE-M DEB (TANK) 4.5 21:15:59 10° SSW 21:23:43 23° SSE 21:27:21 10° E
FALCON 9 DEB 3.4 21:21:04 10° SW 21:24:20 43° SE 21:27:37 10° ENE
Cosmos 1733 3.2 21:20:37 10° N 21:24:26 83° W 21:27:50 12° S
Meteor 1-22 Rocket 4.3 21:19:09 10° NNW 21:24:59 83° W 21:30:28 10° S
STARLINK-60 3.3 21:22:40 10° WSW 21:25:48 65° NNW 21:28:58 10° ENE
NOSS 3-2 (C) 4.2 21:18:30 10° NW 21:26:00 77° SW 21:33:29 14° SSE
BREEZE-M DEB (TANK) 3.2 21:21:38 10° W 21:26:24 73° N 21:29:53 10° E
STARLINK-1154 4.0 21:22:57 10° WNW 21:27:04 63° NNE 21:31:12 10° ESE
STARLINK-1235 3.5 21:24:24 10° WNW 21:27:47 51° SW 21:30:07 18° SE
Cosmos 1174 4.5 21:26:27 17° SSE 21:28:11 25° ESE 21:31:17 10° NE
COSMOS 2455 3.5 21:24:20 10° S 21:29:42 35° ESE 21:35:07 10° NE
Cosmos 1302 Rocket 4.2 21:24:57 10° SSW 21:30:16 79° WNW 21:35:36 10° NNE
SL-27 R/B 3.0 21:27:13 10° NNW 21:30:41 52° WSW 21:33:33 14° S
STARLINK-1352 4.5 21:28:42 10° SSW 21:32:04 26° SE 21:35:26 10° E
STARLINK-1197 3.9 21:27:56 10° WNW 21:32:04 66° NNE 21:36:09 10° ESE
Cosmos 1842 3.2 21:28:38 10° S 21:32:30 75° E 21:36:24 10° NNE
Cosmos 1025 Rocket 4.0 21:30:38 16° SE 21:33:18 31° E 21:37:06 10° NNE
COSMOS 2487 3.7 21:30:56 10° N 21:34:03 30° ENE 21:36:14 16° ESE
SPOT 1/Viking Rocket 3.7 21:30:30 11° S 21:35:27 70° WSW 21:40:37 10° NNW
NOSS 3-4 (A) 3.5 21:30:05 10° SSW 21:35:51 56° ESE 21:42:00 10° NE
Cosmos 1975 Rocket 3.1 21:31:27 10° S 21:35:53 89° WNW 21:40:17 10° N
NOSS 3-4 (C) 3.5 21:30:12 10° SSW 21:35:57 55° ESE 21:42:06 10° NE
STARLINK-1212 3.3 21:33:01 10° WNW 21:36:03 48° SW 21:37:48 22° SSE
STARLINK-1368 4.4 21:33:01 10° SSW 21:36:28 28° SE 21:39:57 10° ENE
STARLINK-1105 3.3 21:33:41 10° WNW 21:36:45 48° SW 21:38:31 22° SSE
STARLINK-1198 3.9 21:32:55 10° WNW 21:37:04 69° NNE 21:40:57 12° ESE
Cosmos 1486 Rocket 4.1 21:32:12 10° NNW 21:37:30 74° WSW 21:41:50 15° SSE
STARLINK-1247 3.4 21:34:47 10° WNW 21:37:53 47° SW 21:39:38 22° SSE
Cosmos 2263 4.1 21:32:27 10° SSW 21:38:01 73° ESE 21:43:39 10° NNE
STARLINK-1227 3.4 21:35:25 10° WNW 21:38:30 46° SW 21:40:12 22° SSE
Cosmos 1354 Rocket 4.2 21:34:19 10° NNW 21:39:36 63° ENE 21:43:37 17° SE
STARLINK-1226 3.4 21:36:35 10° WNW 21:39:39 45° SW 21:41:19 22° SSE
Cosmos 292 Rocket 3.8 21:35:33 10° SSW 21:40:23 85° ESE 21:45:17 10° NNE
STARLINK-1215 3.5 21:37:39 10° WNW 21:40:44 45° SW 21:42:23 23° SSE
STARLINK-1369 4.3 21:37:19 10° SSW 21:40:51 30° SE 21:44:24 10° ENE
Cosmos 1092 Rocket 4.1 21:34:55 10° SSW 21:41:04 79° W 21:47:16 10° N
STARLINK-1199 3.8 21:37:53 10° WNW 21:42:03 73° NNE 21:45:43 13° ESE
ATLAS 5 CENTAUR R/B 3.0 21:37:26 10° SSW 21:42:44 26° SE 21:45:14 10° ENE
EXPRESS MD2 3.9 21:39:25 10° W 21:42:47 74° N 21:49:31 10° E
STARLINK-1217 3.5 21:39:56 10° WNW 21:43:00 43° SW 21:44:35 23° SSE
RESURS DK-1 3.9 21:42:39 17° ESE 21:43:35 18° ESE 21:46:24 10° ENE
STARLINK-1229 3.5 21:41:03 10° WNW 21:44:07 42° SW 21:45:38 24° SSE
Cosmos 1943 Rocket 2.9 21:39:20 10° SW 21:44:48 57° WNW 21:50:22 10° NNE
Cosmos 2297 Rocket 4.3 21:41:06 10° N 21:44:57 18° NE 21:48:46 10° E
Cosmos 1953 3.5 21:41:34 10° N 21:45:08 30° ENE 21:47:21 18° ESE
STARLINK-1270 3.6 21:42:08 10° WNW 21:45:10 41° SW 21:46:39 24° SSE
STARLINK-1372 4.2 21:41:36 10° SSW 21:45:11 32° SE 21:48:48 10° ENE
Cosmos 1271 Rocket 3.0 21:42:55 18° SSE 21:45:36 51° E 21:49:28 10° NNE
STARLINK-1210 3.7 21:42:52 10° WNW 21:47:02 76° NNE 21:50:30 14° ESE
Cosmos 1992 Rocket 4.0 21:42:18 10° S 21:47:25 62° ESE 21:52:35 10° NNE
STARLINK-1189 3.6 21:44:34 10° WNW 21:47:37 39° SW 21:49:02 24° SSE
STARLINK-1188 3.7 21:45:48 10° WNW 21:48:49 38° SW 21:50:12 24° SSE
STARLINK-1378 4.1 21:45:57 10° SSW 21:49:36 35° SE 21:53:17 10° ENE
STARLINK-1191 3.7 21:48:25 10° WNW 21:51:24 36° SW 21:52:41 25° S
STARLINK-1219 3.7 21:47:53 10° WNW 21:52:03 80° NNE 21:55:19 16° ESE
STARLINK-1221 3.8 21:49:38 10° WNW 21:52:36 36° SW 21:53:50 25° S
SL-4 R/B 2.5 21:48:06 10° WSW 21:52:52 78° NNW 21:57:44 10° ENE
STARLINK-1222 3.8 21:50:53 10° WNW 21:53:50 35° SW 21:55:02 25° S
STARLINK-1379 4.0 21:50:20 10° SSW 21:54:03 37° SE 21:57:47 10° ENE
Cosmos 1833 4.2 21:49:09 10° NNW 21:54:48 78° WSW 21:58:53 19° SSE
STARLINK-1214 3.8 21:52:07 10° WNW 21:55:05 34° SW 21:56:14 25° S
Cosmos 1242 Rocket 2.6 21:52:26 14° SSW 21:55:36 81° WNW 21:59:17 10° N
STARLINK-1211 3.6 21:52:51 10° WNW 21:57:02 85° NNE 22:00:06 18° ESE
Cosmos 1707 3.0 21:55:20 22° SSE 21:57:33 51° E 22:01:19 10° NNE
STARLINK-1329 3.9 21:54:00 10° SSW 21:57:47 39° SE 22:01:34 10° ENE
STARLINK-29 3.3 21:55:17 10° WSW 21:58:30 68° NNW 22:01:42 10° ENE
STARLINK-1245 3.6 21:57:49 10° WNW 22:01:59 89° NNE 22:04:51 19° ESE
STARLINK-1362 3.8 21:58:26 10° SW 22:02:15 42° SE 22:06:06 10° ENE
ERS-1 Rocket 3.5 21:59:08 15° S 22:03:15 54° W 22:08:12 10° NNW
Cosmos 1455 Rocket 3.7 21:59:03 10° NNW 22:03:15 51° W 22:06:35 15° SSW
ATLAS 2AS CENTAUR R/B 3.0 21:55:50 10° SW 22:03:50 85° SE 22:11:49 10° NE
Cosmos 1656 Rocket 3.6 21:58:17 10° SSW 22:03:53 82° ESE 22:09:28 10° NNE
Cosmos 1758 3.3 22:00:12 10° N 22:04:17 87° W 22:06:46 23° S
STARLINK-1373 3.8 22:02:55 10° SW 22:06:46 45° SE 22:10:39 10° ENE
STARLINK-1233 3.5 22:02:48 10° WNW 22:06:59 86° SSW 22:09:39 21° ESE
STARLINK-1390 3.7 22:07:23 10° SW 22:11:17 49° SE 22:15:12 10° ENE
STARLINK-1204 3.5 22:07:47 10° WNW 22:11:57 81° SSW 22:14:25 23° SE
ATLAS CENTAUR R/B 1.4 22:07:47 10° SW 22:12:11 82° NW 22:16:17 10° NE
Meteor 1-16 Rocket 4.4 22:07:06 10° N 22:12:27 54° ENE 22:15:41 23° SE
STARLINK-1320 2.8 22:10:43 10° SW 22:13:47 60° SSE 22:16:53 10° ENE
STARLINK-1241 4.5 22:10:02 10° WNW 22:14:05 49° NNE 22:18:08 10° E
STARLINK-1322 2.8 22:11:04 10° SW 22:14:09 61° SSE 22:17:14 10° ENE
STARLINK-1324 2.8 22:11:23 10° SW 22:14:28 61° SSE 22:17:33 10° ENE
Cosmos 968 Rocket 4.2 22:09:34 10° NNW 22:14:28 45° WSW 22:17:57 18° S
STARLINK-1294 2.8 22:11:42 10° SW 22:14:45 61° SSE 22:17:51 10° ENE
STARLINK-1261 2.8 22:12:04 10° SW 22:15:09 62° SSE 22:18:14 10° ENE
STARLINK-1325 2.8 22:12:25 10° SW 22:15:30 62° SSE 22:18:36 10° ENE
STARLINK-1333 2.7 22:12:47 10° SW 22:15:52 63° SSE 22:18:57 10° ENE
STARLINK-1334 2.7 22:13:04 10° SW 22:16:09 63° SSE 22:19:14 10° ENE
STARLINK-1326 2.7 22:13:23 10° SW 22:16:28 63° SSE 22:19:34 10° ENE
STARLINK-1323 2.7 22:13:46 10° SW 22:16:51 64° SSE 22:19:57 10° ENE
STARLINK-1238 3.5 22:12:46 10° WNW 22:16:56 77° SSW 22:19:12 26° SE
STARLINK-1365 3.6 22:13:06 10° SW 22:17:06 54° SE 22:21:06 10° ENE
STARLINK-1349 2.7 22:14:03 10° SW 22:17:09 64° SSE 22:20:15 10° ENE
STARLINK-1336 2.7 22:14:23 10° SW 22:17:28 64° SSE 22:20:35 10° ENE
STARLINK-1331 2.7 22:14:46 10° SW 22:17:51 65° SSE 22:20:57 10° ENE
S3M 4.0 22:11:43 10° N 22:17:57 80° E 22:22:10 22° SSE
STARLINK-1344 2.7 22:15:04 10° SW 22:18:09 65° SSE 22:21:15 10° ENE
STARLINK-1343 2.7 22:15:26 10° SW 22:18:32 66° SSE 22:21:38 10° ENE
SJ 16-02 3.8 22:16:38 10° NNE 22:18:42 13° NE 22:20:47 10° ENE
STARLINK-1346 2.7 22:15:43 10° SW 22:18:49 66° SSE 22:21:57 10° ENE
STARLINK-1239 4.4 22:15:02 10° WNW 22:19:06 51° NNE 22:23:09 10° E
STARLINK-1328 2.7 22:16:09 10° SW 22:19:15 67° SSE 22:22:21 10° ENE
STARLINK-1354 2.7 22:16:27 10° SW 22:19:32 67° SSE 22:22:39 10° ENE
STARLINK-1347 2.7 22:16:44 10° SW 22:19:50 67° SSE 22:22:56 10° ENE
STARLINK-1357 2.7 22:17:09 10° SW 22:20:15 68° SSE 22:23:22 10° ENE
STARLINK-1335 2.7 22:17:27 10° SW 22:20:33 68° SSE 22:23:39 10° ENE
Cosmos 2369 Rocket 3.4 22:15:11 10° SW 22:20:34 44° NW 22:25:59 10° NNE
Meteor 2-8 Rocket 4.4 22:14:24 10° N 22:20:36 86° E 22:24:44 22° S
STARLINK-1327 2.7 22:17:48 10° SW 22:20:53 69° SSE 22:23:59 10° ENE
STARLINK-1340 2.7 22:18:06 10° SW 22:21:12 69° SSE 22:24:18 10° ENE
STARLINK-1356 2.7 22:18:28 10° SW 22:21:34 69° SSE 22:24:41 10° ENE
Cosmos 1867 4.2 22:16:30 10° NW 22:21:42 46° WSW 22:24:50 22° S
STARLINK-1345 2.7 22:18:47 10° SW 22:21:53 70° SSE 22:25:00 10° ENE
STARLINK-1201 3.6 22:17:46 10° WNW 22:21:54 72° SSW 22:23:59 28° SE
STARLINK-1355 2.7 22:19:08 10° SW 22:22:14 70° SSE 22:25:21 10° ENE
STARLINK-1321 2.7 22:19:29 10° SW 22:22:35 71° SSE 22:25:42 10° ENE
BREEZE-M DEB (TANK) 3.9 22:18:55 10° WSW 22:22:36 72° SSE 22:35:39 10° ENE
STARLINK-1358 2.7 22:19:52 10° SW 22:22:58 71° SSE 22:26:04 10° ENE
Cosmos 2227 Rocket 3.9 22:18:27 10° N 22:23:12 26° NE 22:27:54 10° ESE
STARLINK-1332 2.7 22:20:09 10° SW 22:23:15 72° SSE 22:26:22 10° ENE
STARLINK-1348 2.7 22:20:29 10° SW 22:23:35 72° SSE 22:26:43 10° ENE
STARLINK-1330 2.7 22:20:49 10° SW 22:23:55 72° SSE 22:27:02 10° ENE
STARLINK-1240 4.3 22:19:58 10° WNW 22:24:04 53° NNE 22:28:07 10° E
STARLINK-1363 2.7 22:21:09 10° SW 22:24:15 73° SSE 22:27:22 10° ENE
STARLINK-1337 2.7 22:21:31 10° SW 22:24:37 73° SSE 22:27:45 10° ENE
STARLINK-1342 2.7 22:21:51 10° SW 22:24:57 74° SSE 22:28:04 10° ENE
STARLINK-1364 2.7 22:22:11 10° SW 22:25:17 74° SSE 22:28:25 10° ENE
STARLINK-1376 2.7 22:22:31 10° SW 22:25:37 75° SSE 22:28:45 10° ENE
STARLINK-1360 2.7 22:22:51 10° SW 22:25:57 75° SSE 22:29:05 10° ENE
STARLINK-1361 2.7 22:23:12 10° SW 22:26:18 75° SSE 22:29:25 10° ENE
STARLINK-1367 2.7 22:23:28 10° SW 22:26:35 76° SSE 22:29:44 10° ENE
STARLINK-1206 3.6 22:22:43 10° WNW 22:26:51 67° SSW 22:28:45 30° SE
STARLINK-1366 2.7 22:23:50 10° WSW 22:26:57 76° SSE 22:30:04 10° ENE
STARLINK-1338 3.4 22:23:57 10° SW 22:27:52 63° SSE 22:31:49 10° ENE
Cosmos 1553 Rocket 4.2 22:22:10 10° NNW 22:28:22 66° W 22:32:46 19° S
STARLINK-1216 4.3 22:25:00 10° WNW 22:29:04 55° NNE 22:33:09 10° E
STARLINK-1205 3.6 22:27:42 10° WNW 22:31:49 62° SSW 22:33:32 32° SE
STARLINK-52 4.0 22:30:46 10° W 22:33:54 48° NNW 22:37:02 10° ENE
STARLINK-1237 4.2 22:29:57 10° WNW 22:34:04 57° NNE 22:37:58 11° E
Cosmos 1908 3.8 22:31:34 10° N 22:35:15 44° ENE 22:36:36 31° SE
Cosmos 1536 Rocket 3.7 22:33:07 22° SSW 22:35:54 71° WNW 22:40:17 10° N
Cosmos 2084 3.5 22:32:51 18° SSW 22:36:03 66° SE 22:40:29 10° NE
STARLINK-1371 3.3 22:32:18 10° SW 22:36:16 71° SSE 22:40:13 10° ENE
STARLINK-1218 3.7 22:32:42 10° WNW 22:36:48 58° SSW 22:38:19 34° SSE
Cosmos 1777 Rocket 4.1 22:31:43 10° NNW 22:36:59 72° ENE 22:39:51 27° SE
STARLINK-1202 4.1 22:34:58 10° WNW 22:39:04 59° NNE 22:42:45 12° E
STARLINK-1341 3.4 22:36:38 10° SW 22:40:36 75° SSE 22:44:35 10° ENE
SPOT 5 4.4 22:37:07 13° SSW 22:41:07 32° W 22:45:54 10° NNW
JB-3 4.5 22:37:08 10° N 22:41:17 77° WNW 22:43:31 26° SSW
STARLINK-1254 3.8 22:37:42 10° WNW 22:41:46 54° SW 22:43:06 36° SSE
KORONAS-FOTON 4.3 22:42:07 35° SE 22:43:10 45° E 22:46:53 10° NNE
STARLINK-1203 4.0 22:39:44 10° WNW 22:43:53 62° NNE 22:47:23 14° E
In-Cosmos 22 4.0 22:41:25 25° S 22:44:35 84° E 22:49:56 10° NNE
Terra 3.0 22:41:36 17° SSW 22:44:37 35° W 22:48:59 10° NNW
STARLINK-1374 3.4 22:40:54 10° WSW 22:44:53 79° SSE 22:48:53 10° ENE
STARLINK-1231 3.9 22:42:42 10° WNW 22:46:43 50° SW 22:47:53 37° SSE
Thor Agena Rocket 3.6 22:41:36 10° NNE 22:46:54 68° ESE 22:49:41 28° S
Cosmos 1300 4.5 22:44:46 10° NNE 22:47:48 22° ENE 22:49:12 18° E
Cosmos 1726 2.5 22:44:08 10° NNW 22:47:49 58° W 22:49:12 34° SSW
Meteor 2-5 Rocket 4.3 22:46:11 27° SE 22:48:44 43° E 22:54:03 10° NNE
STARLINK-1246 4.0 22:44:55 10° WNW 22:49:04 65° NNE 22:52:19 16° E
STARLINK-1339 3.4 22:45:11 10° WSW 22:49:11 84° SSE 22:53:11 10° ENE
Cosmos 2266 Rocket 3.9 22:47:46 24° S 22:51:37 88° E 22:57:42 10° N
STARLINK-1232 4.0 22:47:43 10° WNW 22:51:43 46° SW 22:52:41 38° S
Cosmos 2292 Rocket 2.6 22:51:50 49° S 22:52:36 89° ENE 22:55:37 10° N
USA 215 4.1 22:46:23 10° E 22:52:40 51° NNE 22:58:57 10° NW
CENTAUR R/B 4.2 22:45:50 10° NW 22:52:56 34° WSW 22:58:20 18° SSW
STARLINK-1377 3.4 22:49:31 10° WSW 22:53:31 88° SSE 22:57:32 10° ENE
STARLINK-1224 3.9 22:49:53 10° WNW 22:54:02 68° NNE 22:57:05 17° ESE
Cosmos 1674 2.7 22:53:26 42° SSE 22:54:31 67° E 22:58:19 10° NNE
STARLINK-1208 4.1 22:52:43 10° WNW 22:56:40 43° SW 22:57:28 38° S
STARLINK-1353 3.5 22:53:50 10° WSW 22:57:50 88° NNW 23:01:52 10° ENE
OE (NEXTSAT) 4.4 22:55:00 10° W 22:58:25 54° S 22:58:38 53° S
Cosmos 1655 Rocket 4.3 22:54:06 18° SSW 22:58:53 64° WNW 23:05:10 10° N
STARLINK-1225 3.8 22:54:53 10° WNW 22:59:02 71° NNE 23:01:53 19° ESE
FALCON 9 DEB 4.1 22:58:02 10° W 23:01:22 48° NNW 23:04:45 10° ENE
STARLINK-1271 4.1 22:57:43 10° WNW 23:01:37 40° SW 23:02:14 37° SSW
ATLAS 3B R/B 3.2 22:55:12 10° NW 23:01:42 48° WSW 23:05:21 26° S
STARLINK-1375 3.5 22:58:10 10° WSW 23:02:11 84° NNW 23:06:13 10° ENE
STARLINK-1230 3.7 22:59:50 10° WNW 23:04:00 75° NNE 23:06:39 21° ESE
SeaSat 1 2.8 23:01:09 10° NE 23:05:55 46° ESE 23:07:34 33° SSE
Cosmos 1340 Rocket 3.8 23:02:21 10° NNW 23:06:09 38° W 23:07:46 26° SW
STARLINK-1350 3.6 23:02:30 10° WSW 23:06:31 80° NNW 23:10:32 10° ENE
STARLINK-1154 4.2 23:02:42 10° WNW 23:06:32 37° SW 23:06:59 36° SSW
BREEZE M DEB (TANK) 2.0 23:04:08 10° W 23:06:41 60° N 23:06:47 59° NNE
Cosmos 1606 Rocket 3.5 23:02:28 10° N 23:06:50 90° SW 23:08:26 39° S
Cosmos 2058 Rocket 3.6 23:03:49 10° N 23:08:10 50° ENE 23:09:53 32° SE
COSMOS 2487 4.3 23:06:21 10° NW 23:08:55 20° W 23:09:44 18° WSW
STARLINK-1243 3.7 23:04:51 10° WNW 23:09:00 79° NNE 23:11:27 24° ESE
STARLINK-1352 3.6 23:06:49 10° WSW 23:10:49 76° NNW 23:14:50 10° ENE
EP 2 4.4 23:10:57 74° SSE 23:11:03 75° SE 23:14:11 10° NE
STARLINK-1197 4.3 23:07:43 10° WNW 23:11:30 34° SW 23:11:47 34° SSW
STARLINK-1236 3.6 23:09:48 10° WNW 23:13:59 83° NNE 23:16:12 26° ESE
STARLINK-1368 3.7 23:11:20 10° WSW 23:15:20 73° NNW 23:19:22 10° ENE
COSMOS 2455 3.7 23:09:38 10° SW 23:15:28 51° NW 23:21:22 10° NNE
ALOS 2 2.7 23:14:35 36° SE 23:16:15 68° ENE 23:20:37 10° N
STARLINK-1198 4.5 23:12:45 10° WNW 23:16:27 32° SW 23:16:34 32° SW
STARLINK-1369 3.8 23:15:45 10° WSW 23:19:46 69° NNW 23:23:47 10° ENE
ERBS 3.4 23:17:13 10° NW 23:20:24 42° NNE 23:22:16 21° E
RESURS DK-1 3.0 23:18:29 19° SW 23:21:14 52° NW 23:25:18 10° NNE
Cosmos 1953 4.1 23:18:11 10° NW 23:21:24 24° W 23:23:02 18° WSW
Cosmos 1626 2.5 23:20:51 44° SE 23:21:27 49° E 23:25:04 10° NNE
Aureole 3 3.9 23:20:23 10° NNW 23:23:04 30° W 23:23:23 29° WSW
STARLINK-1269 3.5 23:19:46 10° WNW 23:23:56 88° SW 23:25:46 32° ESE
STARLINK-1372 3.9 23:20:05 10° WSW 23:24:05 66° NNW 23:28:05 10° ENE
Nimbus 7 Rocket 4.4 23:19:19 10° NNE 23:25:25 75° ESE 23:28:30 31° S
Lacrosse 4 Rocket 2.6 23:24:25 10° NNW 23:28:29 38° NE 23:31:03 19° ESE
STARLINK-1378 3.9 23:24:37 10° WSW 23:28:37 64° NNW 23:32:37 10° ENE
STARLINK-1200 3.5 23:24:45 10° WNW 23:28:54 83° SSW 23:30:33 36° SE
Meteor 1-24 Rocket 3.7 23:27:06 34° S 23:29:26 69° E 23:34:59 10° NNE
Cosmos 2228 3.4 23:25:23 10° NNW 23:29:31 53° W 23:30:53 36° SSW
Cosmos 1656 4.2 23:27:54 32° SSE 23:29:52 44° ESE 23:35:09 10° NE
Cosmos 2297 Rocket 2.3 23:24:19 10° NNW 23:30:00 76° ENE 23:32:59 29° SE
Cosmos 921 Rocket 2.9 23:29:32 39° SSW 23:31:06 88° WNW 23:35:31 10° NNE
Spot 4 4.4 23:29:10 31° SSW 23:31:07 47° W 23:35:49 10° NNW
Cosmos 220 Rocket 4.0 23:29:36 39° SSW 23:31:13 87° ESE 23:35:42 10° NNE
Cosmos 1898 Rocket 4.3 23:26:54 10° NNW 23:32:03 46° ENE 23:35:13 22° SE
SL-4 R/B 2.4 23:33:28 30° NNW 23:33:28 30° NNW 23:34:45 10° NNW
CZ-4C R/B 2.7 23:31:35 32° SE 23:32:43 35° ESE 23:37:58 10° NE
SL-4 R/B 3.1 23:28:14 10° WNW 23:33:00 56° N 23:37:45 10° E
STARLINK-1379 4.0 23:29:07 10° W 23:33:07 61° NNW 23:37:07 10° ENE
STARLINK-1192 3.5 23:29:45 10° WNW 23:33:54 78° SSW 23:35:21 39° SE
Cosmos 2219 3.1 23:28:14 10° NNW 23:33:56 86° WSW 23:36:34 33° SSE
Meteor 2-14 Rocket 4.4 23:31:51 32° S 23:34:51 75° E 23:41:01 10° NNE
STARLINK-1329 4.1 23:32:54 10° W 23:36:54 59° NNW 23:40:54 10° ENE
EO 1 Del DPAF 4.5 23:34:42 10° N 23:38:10 35° WNW 23:39:57 22° WSW
STARLINK-1244 3.5 23:34:43 10° WNW 23:38:52 73° SSW 23:40:05 43° SE
STARLINK-1362 4.2 23:37:26 10° W 23:41:25 57° NNW 23:45:25 10° ENE
Cosmos 990 Rocket 4.4 23:36:35 10° NNW 23:41:47 57° ENE 23:44:36 26° SE
ATLAS CENTAUR R/B 1.2 23:40:50 10° NW 23:42:59 67° NE 23:43:35 49° E
STARLINK-1138 3.5 23:39:41 10° WNW 23:43:49 69° SSW 23:44:52 47° SSE
Cosmos 2082 4.3 23:38:52 10° NNW 23:44:25 53° ENE 23:48:10 20° SE
Cosmos 192 4.5 23:43:01 39° S 23:44:42 61° ESE 23:49:36 10° NNE
STARLINK-1373 4.2 23:42:00 10° W 23:45:59 55° NNW 23:49:57 10° ENE
STARLINK-1143 3.5 23:44:41 10° WNW 23:48:48 64° SSW 23:49:40 49° SSE
Helios 1A 2.9 23:47:33 44° SSE 23:48:50 80° ENE 23:53:02 10° NNW
Okean 1-7 Rocket 3.6 23:47:20 40° SSW 23:48:57 77° W 23:53:32 10° N
STARLINK-1320 4.4 23:46:47 10° W 23:49:44 38° NNW 23:52:42 10° ENE
Cosmos 1726 Rocket 4.3 23:45:53 10° NNW 23:49:57 40° W 23:51:18 31° SW
STARLINK-1322 4.4 23:47:09 10° W 23:50:05 38° NNW 23:53:03 10° ENE
STARLINK-1324 4.4 23:47:28 10° W 23:50:24 38° NNW 23:53:22 10° ENE
STARLINK-1390 4.3 23:46:34 10° W 23:50:32 53° NNW 23:54:32 10° ENE
STARLINK-1294 4.4 23:47:46 10° W 23:50:43 38° NNW 23:53:41 10° ENE
STARLINK-1261 4.4 23:48:09 10° W 23:51:06 38° NNW 23:54:03 10° ENE
STARLINK-1325 4.4 23:48:30 10° W 23:51:27 37° NNW 23:54:25 10° ENE
ATLAS CENTAUR R/B 4.2 23:48:48 10° WNW 23:51:39 17° NNW 23:54:23 10° N
STARLINK-1333 4.4 23:48:53 10° W 23:51:49 37° NNW 23:54:46 10° ENE
STARLINK-1334 4.4 23:49:10 10° W 23:52:06 37° NNW 23:55:03 10° ENE
EO 1 Delta rocket 4.0 23:46:54 10° NNE 23:52:09 67° E 23:53:50 39° SSE
STARLINK-1326 4.4 23:49:29 10° W 23:52:26 37° NNW 23:55:23 10° ENE
STARLINK-1323 4.4 23:49:52 10° W 23:52:49 37° NNW 23:55:46 10° ENE
STARLINK-1349 4.4 23:50:10 10° W 23:53:07 37° NNW 23:56:04 10° ENE
Cosmos 1892 Rocket 3.9 23:51:40 34° SW 23:53:18 56° WNW 23:57:36 10° N
STARLINK-1336 4.4 23:50:30 10° W 23:53:26 37° NNW 23:56:23 10° ENE
STARLINK-1241 3.6 23:49:41 10° WNW 23:53:47 60° SSW 23:54:27 51° S
STARLINK-1331 4.4 23:50:53 10° W 23:53:49 37° NNW 23:56:46 10° ENE
STARLINK-1344 4.4 23:51:12 10° W 23:54:07 37° NNW 23:57:04 10° ENE
STARLINK-1343 4.5 23:51:34 10° W 23:54:30 37° NNW 23:57:27 10° ENE
STARLINK-1346 4.5 23:51:50 10° W 23:54:49 37° N 23:57:46 10° ENE
STARLINK-1328 4.5 23:52:18 10° W 23:55:13 37° NNW 23:58:10 10° ENE
STARLINK-1354 4.5 23:52:35 10° W 23:55:31 36° N 23:58:28 10° ENE
Cosmos 1437 2.5 23:55:39 75° WNW 23:55:39 75° WNW 23:58:40 10° N
STARLINK-1347 4.5 23:52:52 10° W 23:55:48 36° N 23:58:45 10° ENE
STARLINK-1357 4.5 23:53:18 10° W 23:56:14 36° NNW 23:59:11 10° ENE
STARLINK-1335 4.5 23:53:35 10° W 23:56:31 36° N 23:59:28 10° ENE
STARLINK-1327 4.5 23:53:57 10° W 23:56:53 36° N 23:59:49 10° ENE
